Angoon, AK

11:46 PM AKST on December 09, 2019 (GMT -0900)
Angoon

Weather History for PAGN - May, 2019

Change the Weather History Date:

Thursday, May 30, 2019

  Actual Average (PASI) Record (PASI)
Temperature  
Mean Temperature 55 °F 50 °F  
Max Temperature 66 °F 56 °F 67 °F (1957)
Min Temperature 46 °F 45 °F 37 °F (1976)
Degree Days  
Heating Degree Days 10 15  
Month to date heating degree days 521  
Growing Degree Days 5 (Base 50)    
Moisture  
Dew Point 44 °F    
Average Humidity 68    
Maximum Humidity 93    
Minimum Humidity 41    
Precipitation  
Precipitation 0.00 in 0.13 in 0.75 in (1999)
Month to date precipitation 4.11  
Year to date precipitation 29.48  
Sea Level Pressure  
Sea Level Pressure 30.00 in    
Wind  
Wind Speed 0 mph (SSE)    
Max Wind Speed 5 mph    
Max Gust Speed -    
Visibility 10 miles    
Events      
T = Trace of Precipitation, MM = Missing Value Source: NWS Daily Summary

Daily Weather History Graph

Daily Weather History Graph

Search for Another Location

Airport or City:

Astronomy

May. 30, 2019 Rise Set
Actual Time 4:11 AM AKDT 9:40 PM AKDT
Civil Twilight 3:08 AM AKDT 10:44 PM AKDT
Nautical Twilight 1:28 AM AKDT 12:23 AM AKDT
Astronomical Twilight Sun does not rise Sun does not rise
Moon 3:31 AM AKDT (5/30) 4:53 PM AKDT (5/30)
Length of Visible Light 19h 35m
Length of Day
17h 29m
Waning Crescent, 14% of the Moon is Illuminated
May 30
Waning Crescent
Jun 3
New
Jun 9
First Quarter
Jun 17
Full
Jun 25
Last Quarter

Hourly Weather History & Observations

Time (AKDT) Temp. Dew Point Humidity Pressure Visibility Wind Dir Wind Speed Gust Speed Precip Events Conditions
12:56 AM 48.9 °F 43.0 °F 80% 30.10 in 10.0 mi Calm Calm - N/A   Clear
1:56 AM 48.9 °F 44.1 °F 83% 30.09 in 10.0 mi Calm Calm - N/A   Clear
2:56 AM 46.9 °F 43.0 °F 86% 30.09 in 10.0 mi Calm Calm - N/A   Clear
3:56 AM 46.0 °F 43.0 °F 89% 30.08 in 10.0 mi Calm Calm - N/A   Clear
4:56 AM 46.0 °F 43.0 °F 89% 30.07 in 10.0 mi Calm Calm - N/A   Clear
5:56 AM 46.0 °F 44.1 °F 93% 30.07 in 10.0 mi Calm Calm - N/A   Clear
6:56 AM 48.9 °F 45.0 °F 86% 30.05 in 10.0 mi Calm Calm - N/A   Clear
7:56 AM 51.1 °F 44.1 °F 77% 30.04 in 10.0 mi Calm Calm - N/A   Clear
8:56 AM 54.0 °F 44.1 °F 69% 30.03 in 10.0 mi Calm Calm - N/A   Clear
9:56 AM 55.0 °F 44.1 °F 67% 30.01 in 10.0 mi Calm Calm - N/A   Clear
10:56 AM 57.0 °F 46.0 °F 67% 30.01 in 10.0 mi Variable 3.5 mph - N/A   Clear
11:56 AM 60.1 °F 45.0 °F 57% 30.00 in 9.0 mi Variable 3.5 mph - N/A   Clear
12:56 PM 60.1 °F 46.9 °F 62% 29.99 in 10.0 mi Calm Calm - N/A   Clear
1:56 PM 57.9 °F 45.0 °F 62% 29.97 in 10.0 mi Calm Calm - N/A   Clear
2:56 PM 61.0 °F 45.0 °F 56% 29.96 in 10.0 mi Calm Calm - N/A   Clear
3:56 PM 64.0 °F 42.1 °F 45% 29.95 in 10.0 mi Calm Calm - N/A   Clear
4:56 PM 64.9 °F 43.0 °F 45% 29.94 in 10.0 mi Calm Calm - N/A   Clear
5:56 PM 64.0 °F 39.9 °F 41% 29.94 in 10.0 mi Calm Calm - N/A   Clear
6:56 PM 63.0 °F 39.9 °F 43% 29.93 in 10.0 mi Variable 3.5 mph - N/A   Clear
7:56 PM 61.0 °F 41.0 °F 48% 29.93 in 10.0 mi Calm Calm - N/A   Clear
8:56 PM 57.9 °F 46.0 °F 65% 29.93 in 10.0 mi SSE 4.6 mph - N/A   Clear
9:56 PM 55.9 °F 46.0 °F 69% 29.94 in 10.0 mi Calm Calm - N/A   Partly Cloudy
10:56 PM 55.0 °F 46.0 °F 72% 29.94 in 10.0 mi Calm Calm - N/A   Partly Cloudy
11:56 PM 54.0 °F 46.9 °F 77% 29.94 in 10.0 mi Variable 3.5 mph - N/A   Mostly Cloudy